Time,TemperatureF,DewpointF,PressureIn,WindDirection,WindDirectionDegrees,WindSpeedMPH,WindSpeedGustMPH,Humidity,HourlyPrecipIn,Conditions,Clouds,dailyrainin,SoftwareType,DateUTC
2013-07-15 00:01:00,64.0,63.0,30.42,North,0,0.0,1.0,98,0.00,,,0.32,,2013-07-15 04:01:00,
2013-07-15 00:11:00,64.0,63.0,30.42,North,0,0.0,1.0,98,0.00,,,0.32,,2013-07-15 04:11:00,
2013-07-15 00:22:00,65.0,64.0,30.42,North,0,0.0,1.0,98,0.00,,,0.30,,2013-07-15 04:22:00,
2013-07-15 00:32:00,65.0,64.0,30.42,North,0,0.0,1.0,98,0.00,,,0.30,,2013-07-15 04:32:00,
2013-07-15 00:42:00,65.0,64.0,30.42,North,0,0.0,5.0,98,0.00,,,0.29,,2013-07-15 04:42:00,
2013-07-15 00:54:00,65.0,64.0,30.42,North,0,0.0,1.0,98,0.00,,,0.29,,2013-07-15 04:54:00,
2013-07-15 01:02:00,64.0,63.0,30.41,North,0,0.0,1.0,97,0.00,,,0.36,,2013-07-15 05:02:00,
2013-07-15 01:11:00,66.0,65.0,30.42,North,0,0.0,0.0,98,0.00,,,0.29,,2013-07-15 05:11:00,
2013-07-15 01:22:00,65.0,64.0,30.42,North,0,0.0,5.0,98,0.00,,,0.29,,2013-07-15 05:22:00,
2013-07-15 01:32:00,65.0,64.0,30.42,North,0,0.0,5.0,98,0.00,,,0.29,,2013-07-15 05:32:00,
2013-07-15 01:43:00,66.0,65.0,30.42,North,0,0.0,1.0,98,0.00,,,0.27,,2013-07-15 05:43:00,
2013-07-15 01:53:00,66.0,65.0,30.42,North,0,0.0,2.0,98,0.00,,,0.27,,2013-07-15 05:53:00,
2013-07-15 02:02:00,66.0,65.0,30.42,North,0,0.0,2.0,98,0.00,,,0.27,,2013-07-15 06:02:00,
2013-07-15 02:12:00,67.0,66.0,30.42,North,0,0.0,4.0,98,0.00,,,0.26,,2013-07-15 06:12:00,
2013-07-15 02:22:00,67.0,66.0,30.42,North,0,0.0,1.0,98,0.00,,,0.24,,2013-07-15 06:22:00,
2013-07-15 02:32:00,66.0,65.0,30.42,North,0,0.0,1.0,98,0.00,,,0.27,,2013-07-15 06:32:00,
2013-07-15 02:42:00,67.0,66.0,30.41,North,0,0.0,3.0,98,0.01,,,0.25,,2013-07-15 06:42:00,
2013-07-15 02:53:00,67.0,66.0,30.42,North,0,0.0,2.0,98,0.01,,,0.25,,2013-07-15 06:53:00,
2013-07-15 03:01:00,66.0,65.0,30.42,North,0,0.0,2.0,98,0.00,,,0.27,,2013-07-15 07:01:00,
2013-07-15 03:11:00,67.0,66.0,30.42,North,0,0.0,1.0,98,0.01,,,0.24,,2013-07-15 07:11:00,
2013-07-15 03:21:00,67.0,66.0,30.41,NW,320,1.0,4.0,98,0.01,,,0.24,,2013-07-15 07:21:00,
2013-07-15 03:33:00,67.0,66.0,30.41,NW,320,1.0,4.0,98,0.01,,,0.24,,2013-07-15 07:33:00,
2013-07-15 03:44:00,66.0,65.0,30.41,North,0,0.0,1.0,98,0.00,,,0.24,,2013-07-15 07:44:00,
2013-07-15 03:53:00,65.0,64.0,30.41,North,0,0.0,0.0,98,0.00,,,0.24,,2013-07-15 07:53:00,
2013-07-15 04:01:00,65.0,64.0,30.41,North,0,0.0,0.0,98,0.00,,,0.24,,2013-07-15 08:01:00,
2013-07-15 04:11:00,65.0,64.0,30.41,North,0,0.0,0.0,98,0.00,,,0.24,,2013-07-15 08:11:00,
2013-07-15 04:22:00,65.0,64.0,30.42,North,0,0.0,0.0,98,0.00,,,0.23,,2013-07-15 08:22:00,
2013-07-15 04:32:00,65.0,64.0,30.42,North,0,0.0,0.0,98,0.00,,,0.23,,2013-07-15 08:32:00,
2013-07-15 04:43:00,65.0,64.0,30.41,North,0,0.0,0.0,98,0.00,,,0.23,,2013-07-15 08:43:00,
2013-07-15 04:53:00,65.0,64.0,30.41,North,0,0.0,0.0,98,0.00,,,0.22,,2013-07-15 08:53:00,
2013-07-15 05:02:00,65.0,64.0,30.41,North,0,0.0,0.0,98,0.00,,,0.22,,2013-07-15 09:02:00,
2013-07-15 05:12:00,65.0,64.0,30.41,North,0,0.0,0.0,98,0.00,,,0.22,,2013-07-15 09:12:00,
2013-07-15 05:22:00,65.0,65.0,30.41,North,0,0.0,0.0,99,0.00,,,0.21,,2013-07-15 09:22:00,
2013-07-15 05:32:00,65.0,65.0,30.41,North,0,0.0,0.0,99,0.00,,,0.21,,2013-07-15 09:32:00,
2013-07-15 05:43:00,65.0,64.0,30.41,North,0,0.0,0.0,98,0.00,,,0.21,,2013-07-15 09:43:00,
2013-07-15 05:52:00,65.0,64.0,30.41,North,0,0.0,0.0,98,0.00,,,0.20,,2013-07-15 09:52:00,
2013-07-15 06:02:00,65.0,64.0,30.41,North,0,0.0,0.0,98,0.00,,,0.20,,2013-07-15 10:02:00,
2013-07-15 06:11:00,65.0,65.0,30.41,North,0,0.0,1.0,99,0.00,,,0.19,,2013-07-15 10:11:00,
2013-07-15 06:22:00,65.0,65.0,30.42,North,0,0.0,1.0,99,0.00,,,0.19,,2013-07-15 10:22:00,
2013-07-15 06:32:00,65.0,65.0,30.42,North,0,0.0,1.0,99,0.00,,,0.19,,2013-07-15 10:32:00,
2013-07-15 06:43:00,65.0,64.0,30.42,North,0,0.0,0.0,98,0.00,,,0.18,,2013-07-15 10:43:00,
2013-07-15 06:53:00,64.0,63.0,30.42,North,0,0.0,0.0,98,0.00,,,0.18,,2013-07-15 10:53:00,
2013-07-15 07:02:00,64.0,63.0,30.42,North,0,0.0,0.0,98,0.00,,,0.18,,2013-07-15 11:02:00,
2013-07-15 07:11:00,64.0,63.0,30.42,North,0,0.0,0.0,98,0.00,,,0.17,,2013-07-15 11:11:00,
2013-07-15 07:22:00,64.0,63.0,30.42,North,0,0.0,0.0,98,0.00,,,0.17,,2013-07-15 11:22:00,
2013-07-15 07:32:00,64.0,63.0,30.42,North,0,0.0,0.0,98,0.00,,,0.17,,2013-07-15 11:32:00,
2013-07-15 07:42:00,64.0,63.0,30.43,North,0,0.0,0.0,98,0.00,,,0.17,,2013-07-15 11:42:00,
2013-07-15 07:52:00,65.0,64.0,30.43,North,0,0.0,1.0,98,0.00,,,0.16,,2013-07-15 11:52:00,
2013-07-15 08:01:00,65.0,64.0,30.43,North,0,0.0,1.0,98,0.00,,,0.16,,2013-07-15 12:01:00,
2013-07-15 08:11:00,65.0,64.0,30.43,North,0,0.0,0.0,98,0.00,,,0.15,,2013-07-15 12:11:00,
2013-07-15 08:22:00,65.0,64.0,30.43,North,0,0.0,0.0,98,0.00,,,0.13,,2013-07-15 12:22:00,
2013-07-15 08:32:00,65.0,64.0,30.43,North,0,0.0,0.0,98,0.00,,,0.13,,2013-07-15 12:32:00,
2013-07-15 08:42:00,65.0,64.0,30.44,North,0,0.0,0.0,98,0.00,,,0.11,,2013-07-15 12:42:00,
2013-07-15 08:52:00,65.0,64.0,30.44,North,0,0.0,0.0,98,0.00,,,0.09,,2013-07-15 12:52:00,
2013-07-15 09:02:00,65.0,64.0,30.44,North,0,0.0,0.0,98,0.00,,,0.09,,2013-07-15 13:02:00,
2013-07-15 09:11:00,65.0,64.0,30.45,North,0,0.0,1.0,98,0.00,,,0.07,,2013-07-15 13:11:00,
2013-07-15 09:22:00,65.0,64.0,30.45,North,0,0.0,1.0,98,0.00,,,0.07,,2013-07-15 13:22:00,
2013-07-15 09:33:00,66.0,65.0,30.44,North,0,0.0,0.0,98,0.00,,,0.06,,2013-07-15 13:33:00,
2013-07-15 09:43:00,68.0,67.0,30.45,North,0,0.0,0.0,98,0.00,,,0.04,,2013-07-15 13:43:00,
2013-07-15 10:02:00,68.0,67.0,30.45,North,0,0.0,1.0,95,0.00,,,0.02,,2013-07-15 14:02:00,
2013-07-15 10:11:00,68.0,67.0,30.45,North,0,0.0,0.0,96,0.00,,,0.01,,2013-07-15 14:11:00,
2013-07-15 10:22:00,68.0,67.0,30.45,North,0,0.0,0.0,96,0.00,,,0.01,,2013-07-15 14:22:00,
2013-07-15 10:33:00,69.0,68.0,30.44,North,0,0.0,0.0,95,0.00,,,0.01,,2013-07-15 14:33:00,
2013-07-15 10:42:00,69.0,67.0,30.45,North,0,0.0,1.0,94,0.00,,,0.01,,2013-07-15 14:42:00,
2013-07-15 10:56:00,69.0,67.0,30.45,North,0,0.0,1.0,94,0.00,,,0.01,,2013-07-15 14:56:00,
2013-07-15 11:03:00,69.0,67.0,30.45,North,0,0.0,1.0,93,0.00,,,0.01,,2013-07-15 15:03:00,
2013-07-15 11:18:00,71.0,69.0,30.45,North,0,0.0,1.0,92,0.00,,,0.01,,2013-07-15 15:18:00,
2013-07-15 11:39:00,72.0,68.0,30.45,North,0,0.0,3.0,87,0.01,,,0.02,,2013-07-15 15:39:00,
2013-07-15 11:46:00,74.0,68.0,30.45,North,0,0.0,2.0,82,0.01,,,0.02,,2013-07-15 15:46:00,
2013-07-15 11:53:00,74.0,68.0,30.45,North,0,0.0,2.0,82,0.01,,,0.02,,2013-07-15 15:53:00,
2013-07-15 12:08:00,75.0,70.0,30.45,North,0,0.0,4.0,85,0.01,,,0.02,,2013-07-15 16:08:00,
2013-07-15 12:15:00,75.0,69.0,30.45,WNW,297,1.0,5.0,82,0.01,,,0.02,,2013-07-15 16:15:00,
2013-07-15 12:33:00,74.0,69.0,30.44,North,0,0.0,3.0,84,0.00,,,0.02,,2013-07-15 16:33:00,
2013-07-15 13:06:00,76.0,69.0,30.44,North,0,0.0,3.0,79,0.00,,,0.02,,2013-07-15 17:06:00,
2013-07-15 13:13:00,77.0,68.0,30.43,SSW,193,1.0,5.0,74,0.00,,,0.02,,2013-07-15 17:13:00,
2013-07-15 13:36:00,76.0,68.0,30.43,WNW,294,1.0,4.0,76,0.00,,,0.02,,2013-07-15 17:36:00,
2013-07-15 13:49:00,78.0,70.0,30.43,WSW,248,1.0,4.0,77,0.00,,,0.02,,2013-07-15 17:49:00,
2013-07-15 13:55:00,78.0,70.0,30.43,WSW,248,1.0,4.0,77,0.00,,,0.02,,2013-07-15 17:55:00,
2013-07-15 14:45:00,76.0,67.0,30.42,North,0,0.0,4.0,75,0.00,,,0.02,,2013-07-15 18:45:00,
2013-07-15 15:05:00,76.0,69.0,30.42,North,0,0.0,2.0,78,0.00,,,0.02,,2013-07-15 19:05:00,
2013-07-15 15:24:00,76.0,68.0,30.42,North,0,0.0,2.0,77,0.00,,,0.02,,2013-07-15 19:24:00,
2013-07-15 15:36:00,78.0,68.0,30.41,North,0,0.0,4.0,72,0.00,,,0.02,,2013-07-15 19:36:00,
2013-07-15 15:47:00,80.0,69.0,30.41,West,279,1.0,4.0,69,0.00,,,0.02,,2013-07-15 19:47:00,
2013-07-15 15:56:00,80.0,69.0,30.41,West,279,1.0,4.0,69,0.00,,,0.02,,2013-07-15 19:56:00,
2013-07-15 16:07:00,79.0,69.0,30.40,WSW,239,1.0,5.0,72,0.00,,,0.02,,2013-07-15 20:07:00,
2013-07-15 16:17:00,80.0,69.0,30.40,NW,306,1.0,3.0,70,0.00,,,0.02,,2013-07-15 20:17:00,
2013-07-15 16:37:00,77.0,68.0,30.40,North,0,0.0,3.0,73,0.00,,,0.02,,2013-07-15 20:37:00,
2013-07-15 16:43:00,78.0,67.0,30.40,West,260,1.0,4.0,69,0.00,,,0.02,,2013-07-15 20:43:00,
2013-07-15 16:54:00,78.0,67.0,30.40,West,260,1.0,4.0,69,0.00,,,0.02,,2013-07-15 20:54:00,
2013-07-15 17:03:00,79.0,67.0,30.40,NW,320,1.0,5.0,67,0.00,,,0.02,,2013-07-15 21:03:00,
2013-07-15 17:23:00,78.0,69.0,30.40,North,0,0.0,1.0,75,0.00,,,0.02,,2013-07-15 21:23:00,
2013-07-15 17:38:00,79.0,69.0,30.40,North,0,0.0,2.0,72,0.00,,,0.02,,2013-07-15 21:38:00,
2013-07-15 17:48:00,80.0,71.0,30.39,North,0,0.0,4.0,73,0.00,,,0.02,,2013-07-15 21:48:00,
2013-07-15 17:56:00,80.0,71.0,30.39,North,0,0.0,4.0,73,0.00,,,0.02,,2013-07-15 21:56:00,
2013-07-15 18:03:00,79.0,69.0,30.40,North,0,0.0,2.0,71,0.00,,,0.02,,2013-07-15 22:03:00,
2013-07-15 18:22:00,80.0,69.0,30.39,SW,232,1.0,3.0,70,0.00,,,0.02,,2013-07-15 22:22:00,
2013-07-15 18:34:00,80.0,71.0,30.39,North,0,0.0,2.0,73,0.00,,,0.02,,2013-07-15 22:34:00,
2013-07-15 18:43:00,80.0,70.0,30.38,North,0,0.0,3.0,71,0.00,,,0.02,,2013-07-15 22:43:00,
2013-07-15 18:54:00,80.0,70.0,30.38,North,0,0.0,3.0,72,0.00,,,0.02,,2013-07-15 22:54:00,
2013-07-15 19:06:00,80.0,70.0,30.38,North,0,0.0,3.0,72,0.00,,,0.02,,2013-07-15 23:06:00,
2013-07-15 19:13:00,79.0,69.0,30.38,North,0,0.0,2.0,71,0.00,,,0.02,,2013-07-15 23:13:00,
2013-07-15 19:28:00,78.0,68.0,30.38,North,0,0.0,2.0,71,0.00,,,0.02,,2013-07-15 23:28:00,
2013-07-15 19:39:00,78.0,68.0,30.38,North,0,0.0,2.0,71,0.00,,,0.02,,2013-07-15 23:39:00,
2013-07-15 19:47:00,77.0,68.0,30.38,North,0,0.0,2.0,73,0.00,,,0.02,,2013-07-15 23:47:00,
2013-07-15 19:53:00,77.0,68.0,30.38,North,0,0.0,1.0,75,0.00,,,0.02,,2013-07-15 23:53:00,
2013-07-15 20:03:00,77.0,68.0,30.38,North,0,0.0,1.0,75,0.00,,,0.02,,2013-07-16 00:03:00,
2013-07-15 20:16:00,75.0,66.0,30.39,North,0,0.0,1.0,74,0.00,,,0.02,,2013-07-16 00:16:00,
2013-07-15 20:33:00,73.0,67.0,30.39,North,0,0.0,0.0,82,0.00,,,0.02,,2013-07-16 00:33:00,
2013-07-15 20:53:00,69.0,65.0,30.38,North,0,0.0,0.0,87,0.00,,,0.02,,2013-07-16 00:53:00,
2013-07-15 21:09:00,69.0,65.0,30.38,North,0,0.0,0.0,87,0.00,,,0.02,,2013-07-16 01:09:00,
2013-07-15 21:27:00,68.0,64.0,30.38,North,0,0.0,1.0,88,0.00,,,0.02,,2013-07-16 01:27:00,
2013-07-15 21:37:00,67.0,64.0,30.39,North,0,0.0,1.0,89,0.00,,,0.02,,2013-07-16 01:37:00,
2013-07-15 21:48:00,67.0,64.0,30.39,North,0,0.0,0.0,91,0.00,,,0.02,,2013-07-16 01:48:00,
2013-07-15 21:57:00,67.0,64.0,30.39,North,0,0.0,0.0,91,0.00,,,0.02,,2013-07-16 01:57:00,
2013-07-15 22:05:00,67.0,65.0,30.40,North,0,0.0,1.0,93,0.00,,,0.02,,2013-07-16 02:05:00,
2013-07-15 22:11:00,67.0,65.0,30.40,North,0,0.0,1.0,93,0.00,,,0.02,,2013-07-16 02:11:00,
2013-07-15 22:35:00,67.0,65.0,30.40,North,0,0.0,3.0,92,0.00,,,0.02,,2013-07-16 02:35:00,
2013-07-15 22:49:00,68.0,65.0,30.40,North,0,0.0,4.0,90,0.00,,,0.02,,2013-07-16 02:49:00,
2013-07-15 23:08:00,68.0,65.0,30.40,North,0,0.0,1.0,90,0.00,,,0.02,,2013-07-16 03:08:00,
2013-07-15 23:28:00,68.0,65.0,30.41,North,0,0.0,2.0,91,0.00,,,0.02,,2013-07-16 03:28:00,
2013-07-15 23:39:00,67.0,65.0,30.41,North,0,0.0,1.0,92,0.00,,,0.02,,2013-07-16 03:39:00,